Location: Howell Woods
(35.3600°N, 78.2900°W)
Time: 17:12:37
(UTC-05:00)

ISS - Pass Details

Date: 05 December 2021
Orbit: 413 x 422 km, 51.6° (Epoch: 28 January)

Event Time Altitude Azimuth Distance (km) Brightness Sun altitude
Rises 18:51:09 0° 314° (NW) 2,379 0.5 -22.0°
Reaches altitude 10° 18:53:16 10° 318° (NW) 1,509 -0.6 -22.4°
Enters shadow 18:54:57 26° 326° (NW) 863 -2.0 -22.8°
